| time (UTC) | temp C | wind direction | speed KPH | gust KPH | rain 1hr cm | rain 24hr cm | rain mn cm | humidity % | barometer mb |
| 20260505083403 | 13 | 356 | 8.0 | 19.3 | 0.00 | 0.00 | 0.00 | 80 | 1012.4 |
| 20260505082904 | 13 | 357 | 12.9 | 20.9 | 0.00 | 0.00 | 0.00 | 81 | 1012.4 |
| 20260505082403 | 13 | 343 | 11.3 | 22.5 | 0.00 | 0.00 | 0.00 | 82 | 1012.3 |
| 20260505081903 | 13 | 337 | 11.3 | 14.5 | 0.00 | 0.00 | 0.00 | 82 | 1012.3 |
| 20260505081403 | 13 | 323 | 8.0 | 19.3 | 0.00 | 0.00 | 0.00 | 82 | 1012.3 |
| 20260505080404 | 13 | 342 | 8.0 | 16.1 | 0.00 | 0.00 | 0.00 | 83 | 1012.3 |
| 20260505075404 | 12 | 14 | 8.0 | 11.3 | 0.00 | 0.00 | 0.00 | 85 | 1012.3 |
| 20260505074403 | 12 | 13 | 8.0 | 11.3 | 0.00 | 0.00 | 0.00 | 86 | 1012.3 |
| 20260505073903 | 12 | 13 | 4.8 | 8.0 | 0.00 | 0.00 | 0.00 | 87 | 1012.4 |
| 20260505073403 | 11 | 35 | 3.2 | 8.0 | 0.00 | 0.00 | 0.00 | 88 | 1012.4 |
| 20260505072903 | 11 | 12 | 4.8 | 9.7 | 0.00 | 0.00 | 0.00 | 88 | 1012.4 |
| 20260505072403 | 11 | 25 | 6.4 | 11.3 | 0.00 | 0.00 | 0.00 | 88 | 1012.4 |
| 20260505071904 | 11 | 13 | 6.4 | 12.9 | 0.00 | 0.00 | 0.00 | 88 | 1012.4 |
| 20260505070904 | 11 | 28 | 8.0 | 12.9 | 0.00 | 0.00 | 0.00 | 89 | 1012.4 |
| 20260505070403 | 11 | 38 | 9.7 | 12.9 | 0.00 | 0.00 | 0.00 | 88 | 1012.4 |
| 20260505065903 | 11 | 27 | 6.4 | 11.3 | 0.00 | 0.00 | 0.00 | 89 | 1012.4 |
| 20260505065404 | 11 | 8 | 8.0 | 12.9 | 0.00 | 0.00 | 0.00 | 89 | 1012.5 |
| 20260505064903 | 11 | 21 | 8.0 | 14.5 | 0.00 | 0.00 | 0.00 | 89 | 1012.5 |
| 20260505064403 | 11 | 18 | 8.0 | 11.3 | 0.00 | 0.00 | 0.00 | 89 | 1012.6 |
| 20260505063903 | 11 | 23 | 8.0 | 12.9 | 0.00 | 0.00 | 0.00 | 89 | 1012.6 |
| 20260505063403 | 11 | 35 | 3.2 | 9.7 | 0.00 | 0.00 | 0.00 | 89 | 1012.6 |
| 20260505062404 | 11 | 29 | 8.0 | 12.9 | 0.00 | 0.00 | 0.00 | 89 | 1012.6 |
| 20260505061904 | 11 | 19 | 8.0 | 11.3 | 0.00 | 0.00 | 0.00 | 89 | 1012.6 |
| 20260505060903 | 11 | 13 | 8.0 | 14.5 | 0.00 | 0.00 | 0.00 | 89 | 1012.5 |
| 20260505055904 | 11 | 27 | 8.0 | 12.9 | 0.00 | 0.00 | 0.00 | 89 | 1012.5 |
| 20260505055403 | 11 | 17 | 9.7 | 19.3 | 0.00 | 0.00 | 0.00 | 89 | 1012.5 |
| 20260505054904 | 11 | 354 | 9.7 | 16.1 | 0.00 | 0.00 | 0.00 | 89 | 1012.3 |
| 20260505054403 | 11 | 14 | 4.8 | 14.5 | 0.00 | 0.00 | 0.00 | 89 | 1012.3 |
| 20260505053903 | 11 | 15 | 8.0 | 11.3 | 0.00 | 0.00 | 0.00 | 89 | 1012.3 |
| 20260505052904 | 11 | 7 | 4.8 | 9.7 | 0.00 | 0.00 | 0.00 | 89 | 1012.3 |
| 20260505052404 | 11 | 26 | 4.8 | 9.7 | 0.00 | 0.00 | 0.00 | 89 | 1012.3 |
| 20260505051904 | 11 | 33 | 4.8 | 11.3 | 0.00 | 0.00 | 0.00 | 89 | 1012.2 |
| 20260505051403 | 11 | 22 | 4.8 | 9.7 | 0.00 | 0.00 | 0.00 | 89 | 1012.2 |
| 20260505050403 | 11 | 10 | 4.8 | 11.3 | 0.00 | 0.00 | 0.00 | 89 | 1012.2 |
| 20260505041403 | 12 | 19 | 8.0 | 11.3 | 0.00 | 0.00 | 0.00 | 89 | 1012.5 |
| 20260505040903 | 12 | 23 | 8.0 | 14.5 | 0.00 | 0.00 | 0.00 | 89 | 1012.5 |
| 20260505040403 | 12 | 13 | 4.8 | 9.7 | 0.00 | 0.00 | 0.00 | 89 | 1012.5 |
| 20260505035903 | 12 | 7 | 3.2 | 11.3 | 0.00 | 0.00 | 0.00 | 89 | 1012.5 |
| 20260505035403 | 12 | 21 | 4.8 | 9.7 | 0.00 | 0.00 | 0.00 | 89 | 1012.5 |
| 20260505034903 | 12 | 26 | 3.2 | 8.0 | 0.00 | 0.00 | 0.00 | 90 | 1012.5 |
| 20260505034403 | 12 | 9 | 6.4 | 11.3 | 0.00 | 0.00 | 0.00 | 90 | 1012.5 |
| 20260505033404 | 12 | 25 | 0.0 | 0.0 | 0.00 | 0.00 | 0.00 | 90 | 1012.5 |
| 20260505032903 | 12 | 25 | 0.0 | 0.0 | 0.00 | 0.00 | 0.00 | 90 | 1012.5 |
| 20260505032403 | 12 | 26 | 0.0 | 0.0 | 0.00 | 0.00 | 0.00 | 90 | 1012.5 |
| 20260505031904 | 12 | 28 | 0.0 | 0.0 | 0.00 | 0.00 | 0.00 | 89 | 1012.5 |
| 20260505031404 | 12 | 38 | 0.0 | 0.0 | 0.00 | 0.00 | 0.00 | 90 | 1012.6 |
| 20260505030904 | 12 | 41 | 0.0 | 0.0 | 0.00 | 0.00 | 0.00 | 90 | 1012.6 |
| 20260505030404 | 12 | 42 | 0.0 | 0.0 | 0.00 | 0.00 | 0.00 | 90 | 1012.6 |
| 20260505025403 | 12 | 50 | 0.0 | 1.6 | 0.00 | 0.00 | 0.00 | 90 | 1012.6 |
| 20260505024904 | 12 | 49 | 0.0 | 3.2 | 0.00 | 0.00 | 0.00 | 90 | 1012.5 |
| 20260505024404 | 12 | 50 | 1.6 | 4.8 | 0.00 | 0.00 | 0.00 | 90 | 1012.5 |
| 20260505023903 | 12 | 57 | 1.6 | 8.0 | 0.00 | 0.00 | 0.00 | 90 | 1012.6 |
| 20260505022903 | 12 | 42 | 3.2 | 8.0 | 0.00 | 0.00 | 0.00 | 90 | 1012.6 |
| 20260505022403 | 12 | 32 | 4.8 | 8.0 | 0.00 | 0.00 | 0.00 | 90 | 1012.6 |
| 20260505021903 | 12 | 34 | 4.8 | 9.7 | 0.00 | 0.00 | 0.00 | 91 | 1012.6 |
| 20260505021403 | 12 | 35 | 4.8 | 9.7 | 0.00 | 0.00 | 0.00 | 91 | 1012.6 |
| 20260505020903 | 12 | 30 | 3.2 | 9.7 | 0.00 | 0.00 | 0.00 | 91 | 1012.6 |
| 20260505020403 | 12 | 29 | 4.8 | 8.0 | 0.00 | 0.00 | 0.00 | 91 | 1012.7 |
| 20260505015904 | 12 | 41 | 4.8 | 8.0 | 0.00 | 0.00 | 0.00 | 91 | 1012.7 |
| 20260505015403 | 12 | 18 | 3.2 | 8.0 | 0.00 | 0.00 | 0.00 | 91 | 1013.0 |
| 20260505014403 | 12 | 33 | 3.2 | 8.0 | 0.00 | 0.00 | 0.00 | 91 | 1013.0 |
| 20260505013904 | 12 | 101 | 0.0 | 1.6 | 0.00 | 0.00 | 0.00 | 91 | 1013.0 |
| 20260505013403 | 12 | 101 | 1.6 | 3.2 | 0.00 | 0.00 | 0.00 | 91 | 1013.0 |
| 20260505012904 | 12 | 60 | 1.6 | 4.8 | 0.00 | 0.00 | 0.00 | 91 | 1013.0 |
| 20260505012404 | 12 | 100 | 0.0 | 4.8 | 0.00 | 0.00 | 0.00 | 91 | 1013.0 |
| 20260505011903 | 12 | 52 | 3.2 | 8.0 | 0.00 | 0.00 | 0.00 | 91 | 1013.3 |
| 20260505010903 | 12 | 10 | 0.0 | 8.0 | 0.00 | 0.00 | 0.00 | 91 | 1013.3 |
| 20260505005904 | 12 | 16 | 0.0 | 0.0 | 0.00 | 0.00 | 0.00 | 92 | 1013.3 |
| 20260505005404 | 12 | 16 | 0.0 | 0.0 | 0.00 | 0.00 | 0.00 | 91 | 1013.3 |
| 20260505004903 | 12 | 16 | 0.0 | 0.0 | 0.00 | 0.00 | 0.00 | 91 | 1013.3 |
| 20260505004404 | 12 | 32 | 0.0 | 0.0 | 0.00 | 0.00 | 0.00 | 91 | 1013.3 |
| 20260505003903 | 12 | 33 | 0.0 | 0.0 | 0.00 | 0.00 | 0.00 | 91 | 1013.3 |
| 20260505003403 | 12 | 34 | 0.0 | 0.0 | 0.00 | 0.00 | 0.00 | 91 | 1013.3 |
| 20260505002904 | 12 | 34 | 0.0 | 0.0 | 0.00 | 0.00 | 0.00 | 91 | 1013.3 |
| 20260505002404 | 12 | 35 | 0.0 | 0.0 | 0.00 | 0.00 | 0.00 | 91 | 1013.3 |
| 20260505001903 | 12 | 41 | 0.0 | 0.0 | 0.00 | 0.00 | 0.00 | 91 | 1013.3 |
| 20260505001403 | 12 | 37 | 0.0 | 0.0 | 0.00 | 0.00 | 0.00 | 91 | 1013.2 |
| 20260505000904 | 12 | 50 | 0.0 | 0.0 | 0.00 | 0.00 | 0.00 | 91 | 1013.2 |
| 20260505000405 | 12 | 19 | 0.0 | 0.0 | 0.00 | 0.00 | 0.00 | 91 | 1013.4 |
| 20260504235904 | 12 | 29 | 0.0 | 0.0 | 0.00 | 0.00 | 0.00 | 91 | 1013.4 |
| 20260504235404 | 12 | 32 | 0.0 | 0.0 | 0.00 | 0.00 | 0.00 | 91 | 1013.4 |
| 20260504233903 | 12 | 32 | 0.0 | 0.0 | 0.00 | 0.00 | 0.00 | 91 | 1013.4 |
| 20260504233403 | 12 | 32 | 0.0 | 0.0 | 0.00 | 0.00 | 0.00 | 91 | 1013.4 |
| 20260504232903 | 13 | 32 | 0.0 | 0.0 | 0.00 | 0.00 | 0.00 | 91 | 1013.4 |
| 20260504231903 | 13 | 32 | 0.0 | 0.0 | 0.00 | 0.00 | 0.00 | 91 | 1013.4 |
| 20260504231403 | 13 | 32 | 0.0 | 0.0 | 0.00 | 0.00 | 0.00 | 91 | 1013.4 |
| 20260504230904 | 13 | 25 | 0.0 | 0.0 | 0.00 | 0.00 | 0.00 | 91 | 1013.4 |
| 20260504230403 | 13 | 14 | 0.0 | 0.0 | 0.00 | 0.00 | 0.00 | 90 | 1013.4 |
| 20260504225904 | 13 | 13 | 0.0 | 0.0 | 0.00 | 0.00 | 0.00 | 90 | 1013.4 |
| 20260504224904 | 13 | 11 | 0.0 | 0.0 | 0.00 | 0.00 | 0.00 | 90 | 1013.6 |
| 20260504224403 | 13 | 10 | 0.0 | 0.0 | 0.00 | 0.00 | 0.00 | 90 | 1013.6 |
| 20260504223903 | 13 | 10 | 0.0 | 0.0 | 0.00 | 0.00 | 0.00 | 90 | 1013.6 |
| 20260504222904 | 13 | 312 | 0.0 | 0.0 | 0.00 | 0.00 | 0.00 | 89 | 1013.6 |
| 20260504222404 | 13 | 13 | 0.0 | 0.0 | 0.00 | 0.00 | 0.00 | 89 | 1013.6 |
| 20260504221903 | 13 | 19 | 3.2 | 4.8 | 0.00 | 0.00 | 0.00 | 89 | 1013.6 |
| 20260504221403 | 13 | 2 | 1.6 | 8.0 | 0.00 | 0.00 | 0.00 | 89 | 1013.7 |
| 20260504220904 | 13 | 14 | 3.2 | 9.7 | 0.00 | 0.00 | 0.00 | 89 | 1013.7 |
| 20260504215904 | 13 | 17 | 4.8 | 9.7 | 0.00 | 0.00 | 0.00 | 88 | 1013.6 |
| 20260504215404 | 13 | 2 | 6.4 | 11.3 | 0.00 | 0.00 | 0.00 | 88 | 1013.7 |
| 20260504214904 | 13 | 20 | 6.4 | 9.7 | 0.00 | 0.00 | 0.00 | 88 | 1013.7 |
| 20260504214403 | 13 | 26 | 3.2 | 4.8 | 0.00 | 0.00 | 0.00 | 88 | 1013.7 |
| 20260504213903 | 13 | 47 | 3.2 | 8.0 | 0.00 | 0.00 | 0.00 | 88 | 1013.7 |
| 20260504213403 | 13 | 36 | 1.6 | 4.8 | 0.00 | 0.00 | 0.00 | 88 | 1013.7 |
| 20260504212403 | 13 | 4 | 0.0 | 4.8 | 0.00 | 0.00 | 0.00 | 88 | 1013.7 |
| 20260504211904 | 13 | 1 | 3.2 | 8.0 | 0.00 | 0.00 | 0.00 | 87 | 1013.6 |
| 20260504210904 | 13 | 31 | 0.0 | 0.0 | 0.00 | 0.00 | 0.00 | 87 | 1013.6 |
| 20260504210404 | 13 | 31 | 0.0 | 0.0 | 0.00 | 0.00 | 0.00 | 86 | 1013.6 |
| 20260504205903 | 13 | 32 | 0.0 | 0.0 | 0.00 | 0.00 | 0.00 | 86 | 1013.6 |
| 20260504205403 | 13 | 37 | 0.0 | 0.0 | 0.00 | 0.00 | 0.00 | 86 | 1013.6 |
| 20260504204904 | 13 | 304 | 0.0 | 0.0 | 0.00 | 0.00 | 0.00 | 85 | 1013.6 |
| 20260504204404 | 13 | 304 | 0.0 | 0.0 | 0.00 | 0.00 | 0.00 | 85 | 1013.6 |
| 20260504203903 | 13 | 306 | 0.0 | 0.0 | 0.00 | 0.00 | 0.00 | 84 | 1013.6 |
| 20260504203403 | 13 | 306 | 0.0 | 0.0 | 0.00 | 0.00 | 0.00 | 84 | 1013.5 |
| 20260504202904 | 13 | 307 | 0.0 | 0.0 | 0.00 | 0.00 | 0.00 | 84 | 1013.5 |
| 20260504202403 | 13 | 307 | 0.0 | 0.0 | 0.00 | 0.00 | 0.00 | 84 | 1013.5 |
| 20260504201404 | 13 | 307 | 0.0 | 0.0 | 0.00 | 0.00 | 0.00 | 83 | 1013.5 |
| 20260504200904 | 13 | 306 | 0.0 | 0.0 | 0.00 | 0.00 | 0.00 | 83 | 1013.5 |
| 20260504200404 | 13 | 306 | 0.0 | 0.0 | 0.00 | 0.00 | 0.00 | 83 | 1013.5 |
| 20260504195903 | 13 | 306 | 0.0 | 0.0 | 0.00 | 0.00 | 0.00 | 83 | 1013.5 |
| 20260504194903 | 13 | 306 | 0.0 | 0.0 | 0.00 | 0.00 | 0.00 | 83 | 1013.5 |
| 20260504194404 | 13 | 306 | 1.6 | 4.8 | 0.00 | 0.00 | 0.00 | 83 | 1013.5 |
| 20260504193404 | 13 | 310 | 3.2 | 4.8 | 0.00 | 0.00 | 0.00 | 83 | 1013.0 |
| 20260504192904 | 13 | 310 | 1.6 | 8.0 | 0.00 | 0.00 | 0.00 | 83 | 1013.0 |
| 20260504192404 | 13 | 317 | 3.2 | 8.0 | 0.00 | 0.00 | 0.00 | 83 | 1013.0 |
| 20260504191904 | 13 | 320 | 1.6 | 4.8 | 0.00 | 0.00 | 0.00 | 83 | 1013.0 |
| 20260504190903 | 13 | 332 | 3.2 | 8.0 | 0.00 | 0.00 | 0.00 | 82 | 1013.0 |
| 20260504185904 | 14 | 321 | 4.8 | 4.8 | 0.00 | 0.00 | 0.00 | 82 | 1013.0 |
| 20260504185403 | 14 | 306 | 4.8 | 8.0 | 0.00 | 0.00 | 0.00 | 81 | 1013.0 |
| 20260504184903 | 14 | 311 | 4.8 | 8.0 | 0.00 | 0.00 | 0.00 | 82 | 1013.0 |
| 20260504184403 | 14 | 333 | 3.2 | 4.8 | 0.00 | 0.00 | 0.00 | 81 | 1013.0 |
| 20260504183903 | 15 | 328 | 4.8 | 8.0 | 0.00 | 0.00 | 0.00 | 81 | 1013.0 |
| 20260504182904 | 15 | 326 | 4.8 | 8.0 | 0.00 | 0.00 | 0.00 | 79 | 1012.9 |
| 20260504182404 | 15 | 14 | 3.2 | 8.0 | 0.00 | 0.00 | 0.00 | 79 | 1012.9 |
| 20260504181403 | 16 | 141 | 1.6 | 4.8 | 0.00 | 0.00 | 0.00 | 78 | 1012.9 |
| 20260504180903 | 16 | 183 | 1.6 | 4.8 | 0.00 | 0.00 | 0.00 | 76 | 1012.9 |
| 20260504175904 | 16 | 160 | 3.2 | 8.0 | 0.00 | 0.00 | 0.00 | 76 | 1012.7 |
| 20260504175403 | 16 | 106 | 3.2 | 4.8 | 0.00 | 0.00 | 0.00 | 76 | 1012.7 |
| 20260504174903 | 16 | 101 | 0.0 | 4.8 | 0.00 | 0.00 | 0.00 | 76 | 1012.7 |
| 20260504174403 | 16 | 147 | 3.2 | 11.3 | 0.00 | 0.00 | 0.00 | 76 | 1012.7 |
| 20260504173904 | 16 | 145 | 3.2 | 8.0 | 0.00 | 0.00 | 0.00 | 76 | 1012.8 |
| 20260504173403 | 16 | 106 | 3.2 | 8.0 | 0.00 | 0.00 | 0.00 | 76 | 1012.8 |
| 20260504172903 | 16 | 168 | 4.8 | 9.7 | 0.00 | 0.00 | 0.00 | 77 | 1012.8 |
| 20260504172403 | 16 | 167 | 6.4 | 9.7 | 0.00 | 0.00 | 0.00 | 76 | 1012.8 |
| 20260504171903 | 16 | 156 | 0.0 | 0.0 | 0.00 | 0.00 | 0.00 | 77 | 1012.8 |
| 20260504171404 | 16 | 118 | 0.0 | 0.0 | 0.00 | 0.00 | 0.00 | 78 | 1012.8 |
| 20260504170403 | 16 | 74 | 0.0 | 3.2 | 0.00 | 0.00 | 0.00 | 77 | 1012.7 |
| 20260504160404 | 16 | 73 | 6.4 | 9.7 | 0.00 | 0.00 | 0.00 | 72 | 1012.7 |
| 20260504150904 | 18 | 227 | 8.0 | 16.1 | 0.00 | 0.00 | 0.00 | 70 | 1012.7 |
| 20260504140904 | 19 | 190 | 3.2 | 11.3 | 0.00 | 0.00 | 0.00 | 68 | 1012.9 |
| 20260504140403 | 18 | 220 | 4.8 | 9.7 | 0.00 | 0.00 | 0.00 | 70 | 1013.0 |
| 20260504130404 | 17 | 308 | 3.2 | 4.8 | 0.00 | 0.00 | 0.00 | 66 | 1013.5 |
| 20260504110403 | 16 | 54 | 4.8 | 11.3 | 0.00 | 0.00 | 0.00 | 73 | 1013.5 |
| 20260504100404 | 14 | 339 | 1.6 | 8.0 | 0.00 | 0.00 | 0.00 | 79 | 1013.8 |